DW5321 Paradera AW current weather conditions

sailwx.info

Wind from 095 at 6 knots gusting 19

Air temperature 26.1° C
Dewpoint 23.4° C

Last reported at 2016-Feb-12 13:37 UTC.
Time now 2016-Feb-12 14:12 UTC

Location: N 12°33' W 070°00'.
View on Google Maps.

See reports from other nearby stations

  
Tides and Currents Weather Stations Pressure Air Temp Water Temp Dewpoint Dewpoint Depression Visibility Wind Speed Wind Dir Waves Ship Positions
date/time (UTC)wind fromknots sea level pressurealtimeterstation pressurevisibilityair tempwater tempwave heightnotes
2016-Feb-12 13:37 095 6 gusting 19 26.1
2016-Feb-12 13:22 124 9 gusting 19 26.7
2016-Feb-12 13:07 097 7 gusting 15 26.7
2016-Feb-12 12:52 091 9 gusting 17 26.7
2016-Feb-12 12:37 082 8 gusting 15 26.7
2016-Feb-12 12:22 096 8 gusting 13 26.7
2016-Feb-12 12:07 113 9 gusting 14 26.1
2016-Feb-12 11:52 105 6 gusting 14 26.1
2016-Feb-12 11:37 082 8 gusting 14 25.6
2016-Feb-12 11:22 084 6 gusting 12 25.6
2016-Feb-12 11:07 097 6 gusting 12 25.6
2016-Feb-12 10:52 070 7 gusting 16 25.6
2016-Feb-12 10:37 101 6 gusting 14 25.6
2016-Feb-12 10:22 082 8 gusting 12 25.6
2016-Feb-12 10:07 084 7 gusting 13 25.6
2016-Feb-12 09:52 060 7 gusting 13 25.6
2016-Feb-12 09:37 101 6 gusting 12 25.6
2016-Feb-12 09:22 068 8 gusting 16 25.6
2016-Feb-12 09:07 056 6 gusting 13 25.6
2016-Feb-12 08:52 097 6 gusting 13 25.6
2016-Feb-12 08:37 096 6 gusting 13 25.6
2016-Feb-12 08:22 091 6 gusting 12 25.6
2016-Feb-12 08:06 061 6 gusting 12 25.6
2016-Feb-12 07:51 095 4 gusting 11 25.6
2016-Feb-12 07:36 105 6 gusting 11 25.6
2016-Feb-12 07:21 084 7 gusting 12 25.6
2016-Feb-12 07:06 086 7 gusting 12 25.6
2016-Feb-12 06:51 058 7 gusting 13 25.6
2016-Feb-12 06:36 075 4 gusting 10 25.6
2016-Feb-12 06:21 094 6 gusting 12 25.6
2016-Feb-12 06:06 079 6 gusting 12 25.6
2016-Feb-12 05:51 074 6 gusting 15 25.6
2016-Feb-12 05:36 066 7 gusting 14 25.6
2016-Feb-12 05:21 108 7 gusting 13 25.6
2016-Feb-12 05:06 082 8 gusting 13 25.6
2016-Feb-12 04:51 090 5 gusting 12 25.6
2016-Feb-12 04:36 113 7 gusting 13 25.6
2016-Feb-12 04:21 068 8 gusting 14 25.6
2016-Feb-12 04:06 082 8 gusting 14 25.6
2016-Feb-12 03:51 104 9 gusting 13 25.6
2016-Feb-12 03:36 071 7 gusting 14 25.6
2016-Feb-12 03:21 091 5 gusting 14 25.6
2016-Feb-12 03:06 096 7 gusting 12 25.6
2016-Feb-12 02:51 090 6 gusting 14 25.6
2016-Feb-12 02:36 071 6 gusting 13 25.6
2016-Feb-12 02:21 053 4 gusting 11 26.1
2016-Feb-12 02:06 096 5 gusting 8 25.6
2016-Feb-12 01:51 110 4 gusting 10 25.6
2016-Feb-12 01:36 065 4 gusting 12 25.6
2016-Feb-12 01:21 079 5 gusting 11 25.6
2016-Feb-12 01:06 072 6 gusting 11 25.6
2016-Feb-12 00:51 074 6 gusting 10 25.6
2016-Feb-12 00:36 077 6 gusting 10 25.6
2016-Feb-12 00:21 077 6 gusting 11 25.6
2016-Feb-12 00:06 065 7 gusting 13 25.6
2016-Feb-11 23:51 079 4 gusting 10 25.6
2016-Feb-11 23:36 065 6 gusting 13 26.1
2016-Feb-11 23:21 079 6 gusting 13 26.1
2016-Feb-11 23:06 084 6 gusting 12 26.1
2016-Feb-11 22:51 084 6 gusting 11 26.1
2016-Feb-11 22:36 070 6 gusting 11 26.7
2016-Feb-11 22:21 011 6 gusting 15 27.2
2016-Feb-11 22:06 114 6 gusting 13 27.2
2016-Feb-11 21:51 087 8 gusting 14 27.2
2016-Feb-11 21:36 082 10 gusting 16 27.2
2016-Feb-11 21:21 049 9 gusting 15 27.8
2016-Feb-11 21:06 102 11 gusting 19 27.8
2016-Feb-11 20:51 110 13 gusting 19 27.8
2016-Feb-11 20:36 109 10 gusting 19 27.8
2016-Feb-11 20:21 060 11 gusting 19 28.3
2016-Feb-11 20:06 108 13 gusting 19 28.3
2016-Feb-11 19:51 110 12 gusting 19 28.3
2016-Feb-11 19:36 070 9 gusting 16 28.9
2016-Feb-11 19:21 111 8 gusting 15 29.4
2016-Feb-11 19:06 084 6 gusting 14 28.9
2016-Feb-11 18:50 091 7 gusting 16 28.9
2016-Feb-11 18:35 105 11 gusting 19 28.3
2016-Feb-11 18:20 096 10 gusting 18 28.9
2016-Feb-11 18:05 133 12 gusting 19 28.9
2016-Feb-11 17:50 088 11 gusting 16 29.4
2016-Feb-11 17:35 074 9 gusting 15 28.9
2016-Feb-11 17:20 084 8 gusting 16 28.9
2016-Feb-11 17:05 083 7 gusting 14 29.4
2016-Feb-11 16:50 091 11 gusting 19 28.9
2016-Feb-11 16:35 087 12 gusting 16 28.9
2016-Feb-11 16:20 096 10 gusting 15 28.9
2016-Feb-11 16:05 124 9 gusting 18 28.3
2016-Feb-11 15:50 104 10 gusting 17 28.3
2016-Feb-11 15:35 053 8 gusting 16 29.4
2016-Feb-11 15:20 100 13 gusting 20 28.9
2016-Feb-11 15:05 103 9 gusting 15 28.9
2016-Feb-11 14:50 107 6 gusting 14 28.9
2016-Feb-11 14:35 086 9 gusting 17 28.3
2016-Feb-11 14:20 105 10 gusting 19 28.3
2016-Feb-11 14:06 110 14 gusting 19 27.8
2016-Feb-11 13:50 073 9 gusting 19 27.8
2016-Feb-11 13:35 081 8 gusting 19 27.2
2016-Feb-11 13:20 104 14 gusting 21 27.2
2016-Feb-11 13:05 127 9 gusting 20 27.2
2016-Feb-11 12:50 089 11 gusting 20 26.7
2016-Feb-11 12:35 104 10 gusting 18 26.7
2016-Feb-11 12:20 119 9 gusting 14 26.1
2016-Feb-11 12:05 081 9 gusting 14 26.1
2016-Feb-11 11:50 103 7 gusting 13 25.6
2016-Feb-11 11:35 110 6 gusting 11 25.6
2016-Feb-11 11:20 120 5 gusting 11 25.6
2016-Feb-11 11:05 124 6 gusting 15 25.6
2016-Feb-11 10:50 079 6 gusting 12 25.6
2016-Feb-11 10:35 094 6 gusting 14 25.6
2016-Feb-11 10:20 103 6 gusting 10 25.6
2016-Feb-11 10:05 073 6 gusting 13 25.6
2016-Feb-11 09:50 093 7 gusting 13 25.6
2016-Feb-11 09:34 075 6 gusting 13 25.6
2016-Feb-11 09:19 082 5 gusting 13 25.6
2016-Feb-11 09:04 088 9 gusting 13 25.6
2016-Feb-11 08:49 111 6 gusting 15 25.6
2016-Feb-11 08:34 071 6 gusting 13 25.6
2016-Feb-11 08:19 094 6 gusting 14 25.6
2016-Feb-11 08:04 078 5 gusting 12 25.6
2016-Feb-11 07:49 096 11 gusting 17 25.6
2016-Feb-11 07:34 072 9 gusting 14 25.6
2016-Feb-11 07:19 051 9 gusting 18 25.6
2016-Feb-11 07:04 098 9 gusting 15 25.6
2016-Feb-11 06:49 071 6 gusting 14 25.6
2016-Feb-11 06:35 066 8 gusting 14 25.6
2016-Feb-11 06:19 127 7 gusting 14 25.6
2016-Feb-11 06:04 094 6 gusting 13 25.6
2016-Feb-11 05:49 082 8 gusting 17 25.6
2016-Feb-11 05:34 087 9 gusting 17 25.6
2016-Feb-11 05:19 027 10 gusting 17 25.6
2016-Feb-11 05:04 098 11 gusting 17 25.6
2016-Feb-11 04:49 082 10 gusting 16 25.6
2016-Feb-11 04:34 084 9 gusting 19 25.6
2016-Feb-11 04:23 057 7 gusting 17 25.6
2016-Feb-11 03:41 062 9 gusting 17 25.6
2016-Feb-11 03:18 093 8 gusting 19 25.6
2016-Feb-11 03:03 070 10 gusting 15 25.6
2016-Feb-11 02:48 079 9 gusting 15 25.6
2016-Feb-11 02:33 054 8 gusting 15 25.6
2016-Feb-11 02:18 071 10 gusting 16 25.6
2016-Feb-11 02:03 087 8 gusting 15 25.6
2016-Feb-11 01:48 071 6 gusting 14 25.6
2016-Feb-11 01:33 098 7 gusting 14 26.1
2016-Feb-11 01:18 054 7 gusting 15 25.6
2016-Feb-11 01:03 099 6 gusting 16 26.1
2016-Feb-11 00:48 094 9 gusting 18 25.6
2016-Feb-11 00:33 015 10 gusting 19 26.1
2016-Feb-11 00:18 105 10 gusting 16 26.1
2016-Feb-11 00:03 105 10 gusting 16 26.1
2016-Feb-10 23:48 105 10 gusting 17 26.1
2016-Feb-10 23:33 020 8 gusting 15 26.1
2016-Feb-10 23:18 071 8 gusting 13 26.1
2016-Feb-10 23:03 071 8 gusting 14 26.1
2016-Feb-10 22:48 114 10 gusting 15 26.1
2016-Feb-10 22:33 063 8 gusting 18 26.7
2016-Feb-10 22:18 093 8 gusting 15 26.7
2016-Feb-10 22:03 071 8 gusting 16 27.2
2016-Feb-10 21:48 070 9 gusting 18 27.2
2016-Feb-10 21:33 079 10 gusting 17 27.2
2016-Feb-10 21:18 096 10 gusting 17 27.8
2016-Feb-10 21:03 076 8 gusting 19 27.8
2016-Feb-10 20:48 084 12 gusting 17 28.3
2016-Feb-10 20:33 105 9 gusting 21 28.3
2016-Feb-10 20:18 099 13 gusting 20 27.8
2016-Feb-10 20:03 124 10 gusting 18 28.3
2016-Feb-10 19:48 072 10 gusting 18 28.9
2016-Feb-10 19:33 117 11 gusting 22 28.3
2016-Feb-10 19:18 074 8 gusting 16 28.9
2016-Feb-10 19:03 071 9 gusting 16 28.3
2016-Feb-10 18:48 066 11 gusting 17 28.9
2016-Feb-10 18:33 092 11 gusting 17 28.9
2016-Feb-10 18:18 103 11 gusting 19 28.9
2016-Feb-10 18:03 079 10 gusting 19 28.9
2016-Feb-10 17:48 097 11 gusting 18 28.9
2016-Feb-10 17:33 152 10 gusting 19 28.9
2016-Feb-10 17:18 070 13 gusting 22 29.4
2016-Feb-10 17:03 111 10 gusting 18 29.4
2016-Feb-10 16:47 089 12 gusting 18 28.9
2016-Feb-10 16:32 131 12 gusting 20 29.4
2016-Feb-10 16:17 110 13 gusting 24 28.9
2016-Feb-10 16:02 120 12 gusting 22 28.9
2016-Feb-10 15:47 075 11 gusting 22 28.9
2016-Feb-10 15:32 064 13 gusting 22 28.9
2016-Feb-10 15:17 116 13 gusting 23 28.3
2016-Feb-10 15:02 051 11 gusting 22 28.3
2016-Feb-10 14:47 094 13 gusting 26 28.3
2016-Feb-10 14:32 108 10 gusting 22 27.8
2016-Feb-10 14:17 120 12 gusting 21 27.8
2016-Feb-10 14:02 139 13 gusting 21 27.8